Location: Casteau
(50.5142°N, 4.0161°E)
Time: 03:13:14
(UTC+00:00)

Cosmos 2082 Rocket - Pass Details

Date: 18 September 2020
Orbit: 834 x 853 km, 71.0° (Epoch: 24 October)

Event Time Altitude Azimuth Distance (km) Brightness Sun altitude
Rises 18:53:51 0° 330° (NNW) 3,394 6.1 -10.8°
Reaches altitude 10° 18:57:41 10° 356° (N) 2,457 4.9 -11.4°
Maximum altitude 19:00:29 14° 26° (NNE) 2,196 4.3 -11.8°
Drops below altitude 10° 19:03:17 10° 56° (NE) 2,454 4.3 -12.2°
Enters shadow 19:04:23 - 65° (ENE) 2,676 4.4 -12.4°
